Theta_e
333 331 327 323 320 319 317 316 315 314 314 314 314 315 315 315 315 315 315 316 314 314 314 313 312 309 307 307 306 307 307 306 302 306 308 309 308 309 309 310 312 310 311
332 328 324 321 319 317 316 315 315 313 313 314 315 316 316 316 314 315 314 314 313 313 313 311 309 311 305 304 303 302 304 305 304 302 304 306 306 307 308 307 310 311 310
328 325 321 318 317 315 314 313 314 313 313 315 315 315 315 315 315 314 315 314 314 313 313 311 306 304 301 299 299 300 303 306 305 303 302 303 304 310 308 309 310 311 313
324 321 318 317 315 315 314 313 314 315 314 313 313 312 310 309 310 313 315 314 314 312 310 308 305 302 299 298 298 298 301 301 304 302 302 306 308 310 310 308 308 311 310
321 318 316 316 315 315 314 313 314 314 314 314 309 307 306 305 305 305 311 313 312 309 307 307 305 304 304 302 299 298 299 298 301 301 304 306 306 307 307 309 307 309 310
318 317 316 316 315 313 312 312 313 313 313 310 307 305 302 303 300 302 305 309 311 308 303 303 302 300 299 301 304 307 307 300 300 300 300 305 305 308 309 307 306 307 304
317 316 316 315 314 313 313 313 312 312 312 309 306 303 299 297 297 298 301 305 309 306 302 300 301 299 296 295 300 305 306 307 307 301 302 304 306 309 309 306 305 306 305
315 315 315 314 313 312 313 311 309 309 311 308 304 300 295 295 296 296 299 305 308 303 299 297 295 294 293 294 297 300 301 302 303 304 305 306 308 308 306 306 304 303 304
314 314 315 313 313 313 312 309 308 309 312 311 306 300 294 291 295 295 300 308 298 295 296 296 295 293 294 295 294 295 296 297 302 303 303 302 301 301 302 306 304 303 302
314 314 314 314 313 312 312 310 308 311 311 312 306 299 298 291 295 296 297 301 299 295 294 295 297 294 294 293 291 291 292 293 294 299 303 302 303 304 307 310 305 302 303
314 314 314 313 313 313 312 309 309 310 312 310 306 299 296 293 293 294 295 293 296 298 294 293 294 295 294 293 293 292 291 293 298 297 297 297 298 300 303 307 305 305 304
314 314 313 313 315 312 310 309 309 308 310 307 303 300 299 296 296 294 294 294 296 295 295 295 294 294 293 294 294 294 295 297 296 295 294 294 295 298 299 304 302 304 310
313 312 312 313 312 311 309 307 307 307 306 307 305 300 297 296 292 296 297 297 297 294 293 296 296 295 296 297 298 296 296 295 294 293 293 294 296 297 297 301 301 302 303
311 311 312 311 309 308 309 306 302 304 306 307 305 300 290 287 287 288 290 290 292 292 292 294 298 297 297 298 297 295 295 295 294 293 294 295 296 296 296 296 293 293 297
311 310 306 301 297 294 291 293 292 288 297 297 294 294 288 284 285 287 287 286 286 289 291 294 293 293 292 293 293 294 293 294 294 293 293 294 296 296 296 295 293 291 291
309 307 303 300 298 294 291 287 290 290 292 291 291 289 287 288 289 290 290 290 290 291 292 290 290 290 290 291 291 292 292 293 292 294 293 293 294 295 294 294 293 291 290
308 306 304 302 298 295 292 289 286 288 290 289 289 290 289 288 289 290 289 289 290 292 290 289 289 289 290 290 290 291 290 291 292 293 292 292 293 294 294 293 293 292 291
306 303 304 302 301 299 297 293 291 290 287 286 288 287 288 288 288 288 289 290 291 290 289 289 288 288 288 289 289 290 290 290 291 292 292 292 291 292 292 292 292 290 290
307 306 305 304 303 301 299 298 297 293 290 286 286 289 287 288 289 289 292 290 289 288 288 288 288 288 288 288 288 288 288 288 288 289 290 291 290 290 290 290 290 288 288
307 302 305 306 305 303 302 301 298 293 291 289 289 289 290 289 291 290 290 290 289 288 288 288 288 288 287 286 285 285 285 286 286 287 288 290 290 289 289 289 289 289 288
305 304 297 305 305 304 302 301 299 296 294 294 293 291 288 292 290 289 288 289 288 288 288 286 286 286 286 285 284 283 283 284 285 285 286 288 289 287 289 288 288 288 287
304 304 304 304 305 304 303 302 301 299 296 293 290 289 288 292 290 289 289 289 289 289 288 287 287 286 285 284 282 281 280 280 282 284 284 286 288 287 287 287 287 287 286
304 305 304 304 303 299 302 302 301 299 296 293 291 292 293 291 290 289 289 289 289 288 288 287 285 284 284 283 282 281 279 279 280 283 283 285 286 286 286 285 286 285 285
305 304 303 303 303 303 303 301 301 296 297 294 293 294 293 291 290 290 289 289 288 288 288 286 285 283 282 282 281 281 280 280 281 283 283 285 285 285 285 285 285 286 285
305 305 304 303 302 302 302 301 300 299 298 297 296 295 294 292 290 290 289 288 288 288 287 287 285 284 282 281 282 281 282 283 283 283 283 285 285 285 285 284 285 285 285
306 306 303 302 300 300 300 299 299 298 296 297 296 295 294 292 290 289 288 288 288 287 287 285 284 283 283 282 282 282 282 282 282 283 283 285 284 283 283 284 285 284 284
Wind_Speed
15 16 15 12 13 13 11 11 10 8 8 7 7 6 6 6 6 6 6 6 7 7 6 7 6 6 4 5 4 3 4 3 3 4 2 6 8 8 10 8 11 11 10
18 16 16 13 12 12 10 7 8 8 7 7 6 6 6 6 7 7 7 7 7 7 6 7 6 5 6 6 4 6 4 4 2 4 3 7 6 7 7 9 10 10 10
18 15 16 14 11 10 8 7 8 8 7 7 7 7 5 6 6 7 7 7 6 6 7 7 6 7 6 4 4 5 4 5 3 2 3 2 3 8 9 7 11 13 10
19 15 17 12 9 9 7 7 8 7 8 7 7 10 8 8 7 6 6 7 7 7 7 7 6 6 4 5 5 5 4 4 3 2 3 6 4 8 7 9 12 11 9
19 16 15 11 9 9 8 8 8 7 7 10 10 9 7 8 6 6 6 7 7 7 7 6 6 10 13 8 3 5 5 2 2 2 5 4 6 7 7 8 9 10 9
16 17 15 13 11 9 8 8 7 7 8 11 9 8 8 5 7 9 7 4 7 7 6 6 4 10 11 15 14 12 4 3 3 2 3 6 8 6 6 7 7 9 7
17 15 14 14 13 11 8 7 7 8 11 11 9 8 6 5 9 8 7 3 5 7 6 6 6 6 8 7 11 10 9 3 2 1 4 5 6 6 5 7 8 8 7
18 16 15 15 14 10 9 9 6 8 11 9 8 7 5 5 7 7 5 3 8 8 7 6 5 6 7 7 7 7 7 6 6 4 3 8 5 7 1 2 4 6 5
18 16 16 15 14 13 11 9 6 7 8 10 8 7 6 5 6 5 4 8 8 7 6 5 5 5 7 8 7 8 9 10 10 6 7 9 11 8 3 3 5 6 7
18 16 15 13 14 13 12 10 6 8 7 9 9 6 7 6 6 11 9 5 6 4 2 2 5 4 8 7 6 6 7 6 7 8 7 8 9 9 6 1 1 2 4
17 16 14 14 12 12 11 7 6 8 10 10 8 6 6 5 7 12 11 6 4 4 3 3 3 6 8 9 6 3 3 6 8 6 6 6 6 6 5 4 4 1 3
18 17 15 13 11 9 10 7 9 9 11 9 7 5 4 4 6 8 9 8 5 5 3 2 4 10 9 8 6 10 11 8 5 5 5 5 4 6 6 4 6 4 1
18 18 14 13 11 9 10 8 7 7 6 7 7 5 4 3 4 11 11 11 9 4 4 5 9 9 8 7 8 12 8 6 5 5 5 4 5 5 6 5 6 7 5
17 15 14 14 10 7 6 5 5 3 4 4 7 7 4 3 4 4 5 5 8 5 7 5 5 7 9 6 6 6 5 5 4 4 4 4 5 5 6 4 4 5 4
15 15 12 10 10 10 9 6 5 2 2 8 5 8 6 4 2 4 4 4 4 4 4 5 6 5 5 5 4 5 5 6 6 5 5 6 7 6 6 4 4 4 4
14 12 10 10 8 9 10 8 14 10 15 14 11 9 4 8 8 6 5 4 4 4 5 5 4 4 5 4 5 4 5 6 5 6 5 5 7 7 6 4 3 4 5
12 14 10 11 10 10 9 9 10 8 16 13 11 11 9 8 7 4 7 9 10 8 5 4 4 5 4 5 5 4 4 5 6 6 5 5 7 8 7 5 7 4 7
8 14 10 9 9 9 9 8 7 8 6 4 7 6 7 8 5 4 5 4 5 5 5 4 4 5 5 5 5 5 5 6 7 7 8 7 6 7 6 8 7 4 7
10 8 9 8 9 9 8 9 8 8 6 5 3 4 2 2 2 3 7 5 5 4 4 5 5 4 4 5 5 5 5 6 6 7 8 8 6 6 7 7 5 7 6
6 12 9 8 10 10 8 9 9 8 6 5 4 4 3 3 4 5 5 4 5 5 4 5 5 5 5 5 5 5 6 7 7 7 7 8 7 5 7 6 6 6 5
4 5 8 8 10 8 8 9 9 8 7 5 4 3 5 5 6 5 5 4 5 5 5 5 5 5 5 6 6 6 6 5 6 6 6 7 7 5 7 5 7 5 5
5 5 4 5 9 8 9 8 8 7 9 7 4 3 8 6 7 5 5 5 5 5 5 6 7 6 6 6 5 5 5 5 6 7 7 7 7 6 7 5 7 4 5
5 4 4 3 8 11 10 8 8 9 8 6 5 5 4 6 6 5 5 5 5 6 6 7 7 6 5 6 5 5 4 5 5 5 6 6 6 5 6 4 6 4 6
4 3 6 5 7 7 10 9 9 8 9 6 5 5 6 6 6 7 6 5 5 6 6 7 7 8 6 5 5 4 3 3 4 5 6 5 5 6 6 5 5 5 5
3 3 5 5 5 7 10 9 9 8 8 7 6 5 7 6 6 6 6 6 7 7 7 7 6 9 8 9 7 7 7 8 6 7 4 5 7 9 6 4 5 6 5
5 3 4 4 4 5 7 7 9 7 6 8 7 7 8 8 6 6 6 6 7 7 9 7 9 11 9 7 7 9 10 11 10 10 5 4 5 6 5 5 8 6 5
Wind_Direction
116 116 106 103 105 105 108 112 120 116 121 126 130 126 131 117 107 107 107 102 81 69 71 71 64 49 28 7 3 3 13 32 9 307 340 352 3 343 342 340 337 332 333
121 123 114 110 102 105 115 118 120 124 133 142 141 137 129 113 105 106 93 90 85 71 80 79 61 53 36 11 355 5 10 358 24 341 333 350 343 328 323 328 332 331 336
112 113 111 100 114 122 120 132 114 117 125 122 128 129 126 89 96 109 111 108 100 75 56 81 60 52 26 354 354 8 3 352 359 34 306 294 282 334 339 335 344 335 337
116 122 108 122 134 121 135 119 109 118 120 125 91 85 81 69 56 38 86 94 81 71 65 82 79 61 21 355 12 16 351 346 334 345 313 358 329 344 333 347 350 344 328
119 122 116 130 130 123 129 118 118 127 120 98 90 83 77 67 50 39 43 84 87 73 57 93 68 43 19 18 2 334 325 334 309 341 333 337 334 338 345 343 349 339 345
128 122 133 138 127 133 124 116 125 127 105 98 80 78 70 70 45 56 61 64 96 91 67 50 82 34 3 359 358 353 7 147 353 359 319 332 319 324 333 344 334 347 355
127 134 144 136 133 130 119 113 113 106 108 100 98 89 78 61 28 29 42 70 105 105 82 57 43 27 9 355 352 350 6 42 239 266 284 311 308 320 325 331 340 343 335
138 146 138 139 136 129 113 111 112 113 112 109 104 97 93 56 21 6 359 71 80 79 80 72 65 21 8 4 357 356 357 343 338 327 269 295 282 290 341 260 280 295 302
140 144 149 143 135 128 127 117 114 104 104 116 110 110 94 56 357 360 64 85 93 89 84 88 77 31 345 1 13 3 351 352 343 327 310 324 333 326 327 341 352 358 353
145 144 138 137 136 130 133 129 140 131 123 108 111 111 108 75 29 54 65 91 106 107 83 44 63 29 353 4 14 357 6 330 339 344 350 351 347 338 12 45 324 1 345
132 132 130 137 135 131 132 132 142 127 118 110 116 120 103 95 59 63 58 69 81 131 105 39 347 10 353 347 348 335 298 293 346 9 358 349 345 344 357 14 9 14 3
127 127 133 137 137 129 111 113 117 115 121 130 130 113 110 90 82 54 53 60 55 90 56 357 321 334 343 352 358 344 3 6 9 8 3 346 336 348 358 352 12 12 279
125 133 136 125 123 117 121 124 118 117 133 149 141 130 126 70 47 47 44 39 49 63 18 334 347 348 13 43 41 31 19 13 2 14 357 340 343 310 355 356 346 332 336
130 132 128 123 117 121 109 85 80 132 154 162 129 128 110 74 51 43 40 34 21 24 9 6 20 53 50 41 38 17 15 8 7 2 356 330 339 346 354 336 360 346 343
129 131 107 97 94 87 66 57 97 48 146 121 120 129 136 120 130 100 73 34 0 337 6 48 39 34 31 18 10 21 9 9 8 354 3 360 357 349 347 342 359 345 5
130 110 115 114 117 107 107 86 42 55 80 86 94 120 66 112 125 79 28 355 337 70 63 68 48 44 44 28 13 10 6 15 356 357 0 5 2 348 344 340 354 4 354
129 129 129 130 127 129 120 120 111 53 69 69 91 106 106 143 102 54 7 358 29 67 77 64 56 44 35 25 9 15 13 3 6 6 6 353 3 356 345 348 4 359 6
129 129 134 137 134 127 130 133 128 122 117 86 37 91 102 105 81 10 334 23 61 47 82 81 72 50 29 25 15 17 24 16 15 8 357 354 354 2 349 1 5 1 8
134 135 138 136 130 137 142 136 126 122 118 119 94 63 58 78 347 352 86 91 91 83 89 75 74 57 36 35 29 34 33 24 15 8 0 347 346 5 350 356 356 5 5
126 135 134 142 149 149 148 134 131 125 126 130 138 163 157 61 76 77 69 77 74 66 85 83 66 59 49 42 33 30 27 22 12 2 356 350 341 358 357 350 1 5 349
109 113 128 120 140 136 135 128 136 142 139 142 157 141 151 133 118 103 92 81 85 68 69 73 66 61 51 43 41 36 24 12 3 355 353 348 334 353 355 347 358 355 2
118 129 137 135 142 134 141 140 135 122 125 129 144 143 82 105 105 112 112 105 97 85 83 85 70 63 56 61 53 41 20 5 351 351 346 343 333 359 357 353 359 353 10
110 134 145 129 119 134 135 140 126 122 124 128 133 121 95 107 116 120 113 108 99 90 86 83 80 65 56 48 50 57 38 352 324 322 332 332 333 353 2 350 2 6 15
149 108 129 118 127 130 134 142 135 133 132 140 141 130 106 113 122 117 114 109 97 92 94 94 89 84 63 55 41 30 16 334 309 320 318 326 334 358 3 356 2 0 10
45 87 118 122 118 121 141 143 142 142 141 146 136 123 130 127 119 118 121 116 109 103 97 103 94 84 68 49 35 14 349 347 335 326 336 345 24 5 355 1 1 352 9
1 40 127 140 120 120 127 128 142 140 128 133 135 136 136 133 129 127 125 118 116 113 104 93 90 85 72 44 21 14 4 358 357 355 349 28 26 2 349 8 8 360 15